Theta_e
328 326 319 310 302 298 289 289 297 295 297 295 296 292 288 288 288 291 297 296 297 297 301 305 317 340 341 341 342 342 343 343 341 339 339 339 339 341 341 343 344 343 343 343 343 342 341 340 338
325 323 321 309 295 290 284 288 287 292 294 297 293 293 288 283 289 293 292 296 297 297 302 305 325 340 341 341 341 340 341 341 338 339 338 338 338 338 339 340 341 341 342 342 342 341 341 340 339
319 321 312 298 288 286 285 283 284 291 294 296 291 289 286 282 289 290 294 296 296 298 302 304 324 333 337 337 337 337 338 338 338 340 338 337 337 337 337 337 337 337 338 338 339 339 338 338 337
316 313 310 294 284 280 280 283 284 287 290 292 291 283 287 289 289 292 294 295 295 298 301 303 318 326 331 333 333 333 333 334 334 336 336 336 336 337 337 338 338 338 336 336 337 337 335 335 334
311 304 295 289 282 281 281 283 284 282 285 285 291 282 283 288 291 293 293 294 293 296 299 300 312 319 323 326 328 328 328 329 330 330 331 331 331 330 332 333 334 335 337 337 337 336 335 334 333
306 304 292 286 282 282 283 283 282 281 283 282 285 283 281 289 290 291 293 293 294 295 298 299 304 308 314 317 320 322 322 322 323 323 323 323 323 323 324 327 328 330 331 332 332 333 335 335 334
301 297 290 287 283 282 281 285 280 281 280 280 287 281 283 285 289 291 292 293 293 294 296 297 299 302 304 308 310 313 315 315 315 314 313 313 312 314 315 318 321 323 324 325 326 326 327 329 333
303 297 288 284 284 277 283 284 284 281 279 286 286 278 279 286 290 290 291 292 292 293 294 296 295 297 298 299 303 305 307 308 308 308 307 306 305 305 308 309 312 315 315 317 318 318 319 321 322
300 287 281 283 282 280 285 282 284 285 282 284 285 285 287 289 290 289 288 289 290 292 293 293 294 295 296 296 298 299 301 302 302 301 302 301 300 300 300 305 307 308 309 310 311 311 311 310 313
290 282 279 284 283 280 282 282 282 281 281 282 285 287 289 289 288 287 286 286 288 289 291 292 293 293 295 295 296 295 296 296 296 297 297 297 297 297 297 299 302 303 303 304 305 306 305 304 304
287 280 283 283 284 284 281 280 284 281 279 281 281 284 286 287 286 286 287 287 287 289 291 292 293 293 293 293 294 294 295 295 295 294 295 295 295 294 294 294 296 295 296 295 296 296 297 298 300
283 286 286 286 287 284 280 282 279 280 280 284 284 285 285 285 285 285 286 287 288 289 290 291 292 292 293 293 293 293 293 293 293 294 294 293 292 292 291 292 293 293 292 292 293 293 293 295 297
283 283 284 284 283 283 283 280 280 280 284 285 285 285 284 284 285 286 286 288 288 288 290 291 292 292 292 292 292 292 292 292 293 293 293 293 292 291 291 291 292 291 291 290 290 290 290 292 293
285 285 286 286 285 284 281 281 283 283 286 285 285 285 285 285 285 286 286 286 287 288 289 291 291 292 292 292 292 292 292 292 292 292 292 292 291 290 290 289 289 290 290 290 289 289 288 290 290
287 283 284 286 285 283 288 279 278 284 287 285 285 286 286 286 287 286 287 286 287 288 289 290 291 291 291 291 291 291 291 291 290 291 291 291 291 290 289 288 288 289 289 288 288 288 288 288 288
288 287 280 287 288 289 287 273 281 285 284 284 285 285 285 285 286 286 287 287 288 288 288 289 290 290 291 291 290 290 290 290 289 290 290 291 290 290 289 288 288 289 289 288 287 286 286 286 286
283 277 278 280 285 285 282 275 283 285 284 284 284 285 285 285 286 287 287 287 287 288 288 288 289 289 290 290 291 290 290 290 288 289 289 290 290 289 288 287 288 289 287 287 287 286 286 285 285
276 275 277 276 279 280 277 276 280 283 283 282 281 283 282 282 284 286 287 287 286 287 287 288 289 289 289 289 289 289 289 289 288 288 288 289 289 289 287 287 287 287 286 285 285 284 285 284 284
278 276 275 276 281 278 275 275 276 279 280 278 278 279 281 281 283 285 287 287 286 286 286 286 287 287 288 287 286 287 285 286 287 287 289 289 288 289 287 286 286 286 285 285 285 284 283 283 284
278 275 275 278 279 277 274 274 277 277 277 278 278 278 280 280 282 283 284 284 285 284 284 285 286 286 287 287 287 286 285 285 286 288 288 289 289 289 288 286 285 285 285 284 284 283 282 282 283
277 276 275 276 278 277 274 273 273 277 278 279 280 280 280 280 280 281 282 283 283 284 284 285 286 286 286 287 287 287 286 285 285 285 286 287 289 289 288 286 286 285 285 283 283 283 282 280 281
276 279 279 279 276 268 278 267 273 274 276 277 279 278 279 280 281 281 281 281 282 283 284 285 285 285 286 286 286 285 283 282 284 285 286 286 287 287 287 286 285 284 284 283 283 284 282 281 279
278 280 280 280 275 272 273 266 274 275 274 276 277 278 278 280 281 280 281 282 282 283 283 284 284 285 285 285 285 283 283 283 283 283 284 284 285 286 286 286 285 284 284 283 283 282 281 281 280
281 279 279 277 274 263 269 267 269 272 275 276 279 279 280 280 280 280 281 282 281 282 283 283 284 285 285 285 285 284 283 283 283 283 283 283 284 284 285 285 284 284 284 283 283 282 281 281 280
278 275 263 264 263 265 271 266 271 277 278 279 280 280 280 280 280 280 279 279 280 281 282 283 283 283 284 284 284 284 283 283 282 282 282 282 282 282 283 283 283 283 283 283 283 281 281 280 280
274 273 266 259 264 266 271 265 273 277 281 282 281 282 281 280 281 280 280 280 280 281 281 282 283 283 284 283 283 284 283 283 283 283 282 282 282 282 283 283 283 283 283 283 282 281 280 280 280
273 272 273 260 252 261 268 273 276 278 280 280 281 279 279 280 280 281 281 281 280 280 281 281 281 282 283 283 283 283 283 282 282 282 282 282 282 284 284 283 283 283 282 282 280 280 280 280 279
274 275 268 264 260 259 267 268 272 274 277 279 279 279 280 281 281 281 281 281 281 280 281 281 282 282 282 283 283 283 283 283 283 282 282 282 283 283 283 283 283 282 282 281 280 279 280 279 279
270 270 270 268 266 261 261 269 274 277 277 278 280 281 280 281 281 282 282 282 281 281 280 281 281 281 282 283 283 283 283 283 283 283 283 283 283 283 283 283 282 282 281 280 279 279 279 278 278
272 272 272 265 264 265 266 268 279 279 278 278 279 281 281 282 282 282 282 281 280 280 280 280 281 281 282 282 283 283 283 283 283 282 283 283 282 282 282 282 282 281 280 279 278 278 278 277 277
Wind_Speed
13 11 3 4 6 5 3 4 7 13 6 4 13 10 13 10 5 3 14 15 21 19 20 22 33 11 15 16 18 18 18 20 19 19 19 19 19 18 18 19 18 15 13 13 13 13 13 13 12
8 5 5 2 6 3 2 4 6 9 8 10 8 5 9 6 6 11 10 20 19 18 17 19 28 22 23 21 22 22 22 20 19 19 19 19 19 19 18 18 19 18 17 16 15 14 12 11 11
3 5 5 5 4 4 3 5 8 9 14 6 6 10 6 7 11 9 11 15 17 14 15 18 26 25 24 24 23 23 22 23 23 22 20 20 21 20 19 18 17 16 15 14 14 13 12 11 12
3 5 5 5 9 4 4 6 9 7 6 15 9 11 7 10 7 10 12 13 12 12 14 18 24 24 23 22 23 23 23 23 23 22 24 25 23 24 23 22 20 17 16 16 15 14 13 12 10
4 3 5 6 6 7 9 12 14 12 5 12 3 5 6 7 10 8 10 12 12 11 12 13 23 24 25 23 22 24 24 24 23 24 24 24 24 23 23 23 22 21 22 20 18 15 14 12 11
4 2 4 5 6 4 4 16 10 14 12 10 10 7 6 7 9 8 9 11 10 10 11 10 16 21 26 26 24 25 25 24 24 24 24 24 25 25 24 24 24 22 21 20 19 20 19 13 13
5 4 5 7 8 4 4 5 16 9 17 11 6 5 5 13 10 9 8 8 9 9 9 9 8 15 21 25 26 26 26 26 25 24 23 24 24 25 25 24 24 23 23 22 21 20 20 21 19
4 5 4 6 4 4 3 4 4 14 13 2 11 7 4 13 12 9 6 10 11 11 10 9 10 9 10 12 25 25 25 25 25 25 24 21 22 23 24 23 24 23 24 23 22 22 22 21 20
6 6 4 4 4 5 7 4 4 7 14 19 8 10 6 12 13 11 9 12 11 11 11 11 11 11 11 12 12 17 22 25 24 19 22 15 10 12 16 20 23 24 23 24 23 24 23 23 20
8 6 6 4 4 10 10 8 6 5 13 12 10 14 14 14 13 13 14 12 14 13 12 10 11 11 10 10 11 12 12 12 12 12 12 9 11 11 13 16 22 23 23 24 24 24 22 17 9
7 7 10 13 14 10 8 7 3 7 10 6 7 10 12 12 13 13 14 14 11 11 11 12 10 11 10 9 7 6 6 7 8 13 10 9 9 8 8 7 8 10 17 10 13 13 10 14 10
10 15 9 8 6 4 6 4 7 9 4 4 5 6 7 12 12 13 13 13 12 11 11 11 10 10 12 7 9 9 7 7 8 11 12 8 7 8 9 7 9 9 9 11 10 8 11 12 13
16 12 16 18 17 15 15 12 8 10 6 3 4 6 9 10 8 9 10 10 11 12 12 12 11 10 10 10 8 9 8 8 9 10 12 9 9 9 8 8 8 8 8 8 9 9 9 10 11
13 16 10 8 9 9 6 6 5 6 3 2 4 4 4 4 5 6 9 11 13 10 11 9 11 10 10 10 11 8 9 8 9 9 10 11 8 7 7 8 8 8 8 8 7 8 8 8 9
17 15 11 5 4 7 1 10 5 2 5 1 4 3 3 4 4 4 5 7 6 9 8 9 10 11 10 11 10 9 8 7 6 8 10 10 8 8 7 7 8 7 7 9 8 10 8 8 9
4 4 3 2 4 2 3 1 1 7 5 7 4 3 2 1 1 1 3 1 5 6 8 8 9 10 9 7 6 7 6 6 5 6 7 9 11 10 9 8 8 7 8 9 8 9 9 9 10
5 4 4 1 3 3 2 3 7 9 6 8 4 3 3 2 2 2 3 1 3 3 6 8 8 7 7 7 6 6 7 7 5 5 5 7 8 9 8 7 8 8 7 9 9 9 9 10 12
4 5 4 5 6 9 8 4 6 7 6 6 4 2 2 3 3 5 5 3 2 4 4 4 5 5 5 3 3 3 4 5 4 5 5 6 6 7 6 6 8 8 8 8 9 10 9 7 11
9 7 7 2 3 6 3 4 6 6 6 6 5 4 5 3 4 5 6 5 3 2 4 3 4 5 4 3 3 3 4 3 4 4 5 6 6 7 8 6 8 7 7 8 9 9 11 8 13
8 7 3 3 3 5 4 3 6 6 6 6 7 7 6 4 5 5 4 5 4 3 2 1 3 4 3 2 2 2 1 2 1 3 4 5 5 6 6 5 5 6 6 8 9 9 7 4 9
5 3 2 4 3 4 5 4 5 7 6 6 8 7 7 8 7 6 6 5 4 4 4 2 1 1 2 3 2 2 3 2 2 2 2 4 5 5 5 5 4 4 4 5 4 6 7 6 4
3 2 2 3 3 2 3 4 6 7 9 8 11 9 9 8 6 6 7 6 7 7 6 5 5 4 3 2 1 2 1 1 1 2 2 3 4 5 4 4 5 5 3 5 4 5 3 4 5
3 0 2 2 3 4 2 5 6 5 9 14 13 13 11 10 8 8 8 8 8 7 7 6 6 5 4 4 3 2 2 3 2 2 4 4 4 5 4 4 5 5 3 4 5 5 5 2 2
1 3 5 4 3 4 5 5 6 8 12 7 14 16 14 12 11 9 9 7 7 6 6 7 7 7 6 6 6 6 5 4 2 3 3 3 3 4 5 4 3 4 4 4 4 4 5 4 4
1 4 4 7 5 6 1 3 12 8 8 9 18 18 17 15 13 11 10 8 8 9 8 7 8 8 7 7 7 7 7 6 6 6 4 4 3 2 4 3 3 3 4 5 4 5 5 5 4
2 4 7 6 2 5 5 7 8 6 8 8 8 12 13 14 13 13 12 9 9 9 9 8 8 8 7 7 8 6 7 5 5 5 4 4 3 4 4 4 4 5 5 5 5 3 4 5 5
3 2 3 9 0 5 3 9 8 3 5 6 8 8 13 15 15 16 12 11 9 9 9 9 8 8 7 8 7 7 6 7 6 7 5 4 5 4 6 5 5 4 4 5 5 3 5 5 5
2 4 4 4 1 4 6 7 8 6 12 9 10 12 12 13 14 14 13 13 10 9 8 8 8 9 8 8 7 6 7 7 7 6 7 7 6 5 5 5 5 5 5 5 5 4 5 6 6
2 3 2 4 5 7 2 9 9 10 11 15 15 13 13 14 15 15 14 12 12 8 8 9 8 9 8 7 7 7 7 7 6 6 6 6 6 6 6 6 5 5 5 6 5 6 7 8 9
2 5 6 7 7 4 3 12 5 9 8 9 13 13 10 12 13 12 13 11 10 9 8 9 8 8 9 8 7 7 7 6 6 7 7 6 7 6 6 5 5 5 5 5 6 7 8 9 10
Wind_Direction
325 307 246 40 81 69 54 55 25 25 35 46 49 69 94 51 25 92 340 359 337 326 321 322 324 21 68 74 71 67 66 66 66 67 65 62 60 58 58 51 58 64 68 69 76 75 73 63 49
314 309 36 69 86 144 180 355 14 4 328 142 72 54 46 80 34 320 340 339 333 321 327 330 342 30 60 66 69 64 59 64 67 67 66 64 61 59 57 54 48 47 49 49 52 56 52 54 43
290 6 74 80 77 114 132 27 321 326 43 351 99 45 51 359 350 341 333 331 330 336 337 336 2 24 51 58 64 64 62 58 56 52 59 59 58 57 54 52 50 47 40 39 41 39 37 40 30
357 31 50 95 109 54 38 14 330 337 29 25 98 68 81 43 348 339 340 340 335 348 350 346 9 28 43 56 61 63 63 61 60 57 56 54 48 47 43 41 42 43 46 41 33 29 23 25 17
33 56 88 79 95 120 59 17 21 51 58 10 349 85 69 26 358 5 354 345 346 3 360 5 18 32 42 49 57 62 60 60 57 58 57 53 49 47 42 41 36 32 30 30 23 16 11 7 2
54 92 77 126 100 138 70 27 44 37 44 17 76 92 64 20 356 343 10 358 357 16 13 5 29 29 46 45 49 59 60 58 57 55 54 52 46 42 39 39 33 34 33 27 24 19 7 358 356
84 54 79 75 117 96 43 31 26 46 24 23 10 87 99 17 8 347 24 4 13 25 28 353 41 34 36 46 48 53 59 58 57 56 55 53 51 46 42 37 34 33 30 26 24 19 14 10 9
69 80 75 31 132 67 58 96 30 36 37 303 9 37 38 346 342 357 17 22 19 29 23 20 28 69 60 39 39 46 52 56 54 52 52 51 48 45 41 37 34 32 32 28 25 21 16 12 7
351 67 48 56 75 129 161 114 37 45 59 51 74 61 19 355 12 13 18 24 18 25 25 21 25 34 43 58 46 37 41 46 43 41 42 38 41 37 39 34 35 30 30 27 24 21 18 12 7
50 66 42 19 76 101 85 95 86 73 63 40 39 26 23 18 17 21 14 23 20 16 21 24 31 26 34 47 38 36 34 38 38 33 28 35 38 36 41 32 32 26 28 28 20 18 16 14 6
36 88 99 76 92 96 89 62 50 126 64 18 4 5 5 31 18 25 11 5 20 16 17 22 29 38 43 46 47 40 31 34 36 31 28 27 35 32 29 28 23 20 18 20 18 13 12 10 5
100 61 68 115 68 83 65 78 74 43 83 58 34 350 10 25 19 5 7 345 355 17 23 16 23 36 42 41 47 44 36 32 38 32 28 29 36 31 31 30 25 25 15 14 16 9 5 7 0
61 81 71 81 81 81 88 72 86 51 40 50 30 10 21 12 11 351 346 356 352 7 17 16 22 29 42 47 47 52 39 38 38 39 32 26 28 34 35 25 24 23 16 9 9 9 5 358 354
114 107 107 81 77 69 73 49 61 349 323 100 13 3 357 340 315 337 345 345 0 4 10 16 24 31 40 49 50 50 46 34 36 36 34 29 29 30 26 28 23 19 14 6 2 7 2 356 351
120 104 120 147 143 160 32 28 22 282 277 267 321 316 336 327 326 311 284 324 2 353 13 8 36 29 35 45 45 51 46 42 36 35 34 28 32 25 40 33 22 11 10 14 8 9 5 3 357
132 152 87 48 219 124 245 264 279 229 264 299 287 280 285 308 271 338 313 241 15 13 16 30 34 28 35 48 46 54 45 53 43 38 30 27 30 29 38 29 23 11 11 17 15 7 2 4 357
36 95 79 114 30 112 9 191 212 227 233 280 251 240 256 268 231 223 195 345 28 39 30 29 37 28 36 34 50 56 48 42 27 34 32 16 29 27 37 29 18 15 16 20 10 5 8 1 354
142 100 40 47 8 71 74 101 199 202 223 262 231 203 201 157 184 183 189 199 142 46 42 42 43 24 17 28 47 42 53 45 26 24 23 20 23 28 33 28 23 21 24 19 13 7 1 5 346
89 94 108 166 219 78 67 153 214 217 219 235 247 226 208 200 205 189 186 183 139 64 69 48 40 21 18 7 5 11 34 25 30 15 12 22 21 27 30 23 20 19 21 15 13 4 2 358 355
70 94 75 66 141 88 199 238 239 220 225 209 213 225 213 214 200 205 180 186 178 165 136 90 66 46 36 24 12 33 22 40 21 354 2 16 22 22 35 25 17 11 12 13 13 16 1 340 6
35 85 207 144 131 62 129 301 219 235 232 220 226 215 214 211 212 217 202 195 196 206 204 199 187 93 41 34 34 18 33 15 356 343 340 2 8 19 26 20 19 11 16 10 351 13 14 359 350
76 350 72 121 60 167 141 259 248 218 225 219 220 218 216 214 215 215 211 211 209 219 210 207 198 191 194 157 95 93 129 57 259 266 297 330 353 351 5 12 12 11 7 7 352 6 4 356 358
161 263 77 86 72 60 321 72 251 159 235 226 217 217 215 211 207 213 212 214 216 208 208 212 215 217 211 200 181 170 201 224 247 289 324 327 325 337 342 358 2 5 359 348 353 350 350 352 329
118 83 36 49 74 15 233 130 262 191 208 216 212 214 209 207 210 212 214 213 219 215 215 213 217 227 219 214 214 210 224 244 271 288 299 304 314 315 319 331 343 335 332 336 330 329 334 328 308
70 71 352 358 7 221 95 35 245 230 217 202 202 209 205 202 201 205 206 210 213 210 214 214 213 230 223 219 227 227 231 234 240 252 253 270 282 270 287 291 313 314 318 325 330 326 315 307 304
142 152 155 204 213 268 352 243 251 218 228 221 211 202 196 200 201 203 205 204 211 212 213 214 215 230 227 226 234 233 233 229 232 235 237 245 243 257 273 276 296 308 314 311 308 292 285 291 290
202 205 148 102 179 47 239 281 293 215 212 219 219 187 200 200 198 204 205 205 207 210 215 209 217 231 234 230 230 234 233 235 238 244 241 248 248 247 252 241 267 277 288 289 288 282 286 278 278
208 153 68 360 114 283 283 275 246 238 231 223 225 213 208 201 202 205 205 206 209 208 210 210 213 219 227 227 226 228 228 233 237 242 244 239 252 242 260 263 271 294 302 301 302 295 289 283 288
161 199 53 118 145 173 242 260 215 218 206 212 221 217 207 203 204 205 208 207 206 205 205 215 214 220 232 229 234 238 241 241 245 246 251 247 262 255 254 250 268 279 287 292 290 283 284 283 294
237 208 162 130 239 235 151 269 214 215 221 208 224 217 213 210 207 206 206 201 202 208 210 214 218 216 224 226 231 237 248 250 250 247 247 238 244 251 246 248 255 264 273 280 278 286 290 290 296